Time,TemperatureF,DewpointF,PressureIn,WindDirection,WindDirectionDegrees,WindSpeedMPH,WindSpeedGustMPH,Humidity,HourlyPrecipIn,Conditions,Clouds,dailyrainin,SoftwareType,DateUTC
2013-01-03 00:14:00,27.1,23.2,30.31,West,270,0.0,-999.0,85,-99.99,,,0.00,Acu-Link.com,2013-01-03 06:14:00,
2013-01-03 00:29:00,27.7,16.0,30.31,West,270,0.0,-999.0,61,-99.99,,,0.00,Acu-Link.com,2013-01-03 06:29:00,
2013-01-03 00:44:00,29.3,25.1,30.31,WNW,292,1.1,-999.0,84,-99.99,,,0.00,Acu-Link.com,2013-01-03 06:44:00,
2013-01-03 01:00:00,31.5,28.3,30.31,WNW,292,0.0,-999.0,88,-99.99,,,0.00,Acu-Link.com,2013-01-03 07:00:00,
2013-01-03 01:15:00,30.9,28.1,30.31,West,270,0.0,-999.0,89,-99.99,,,0.00,Acu-Link.com,2013-01-03 07:15:00,
2013-01-03 01:30:00,30.2,27.4,30.31,SSE,157,0.0,-999.0,89,-99.99,,,0.00,Acu-Link.com,2013-01-03 07:30:00,
2013-01-03 01:45:00,29.1,26.0,30.32,South,180,0.0,-999.0,88,-99.99,,,0.00,Acu-Link.com,2013-01-03 07:45:00,
2013-01-03 02:00:00,28.4,23.9,30.32,WNW,292,0.0,-999.0,83,-99.99,,,0.00,Acu-Link.com,2013-01-03 08:00:00,
2013-01-03 02:16:00,27.9,21.0,30.32,WSW,247,0.0,-999.0,75,-99.99,,,0.00,Acu-Link.com,2013-01-03 08:16:00,
2013-01-03 02:31:00,28.4,16.3,30.33,SW,225,0.0,-999.0,60,-99.99,,,0.00,Acu-Link.com,2013-01-03 08:31:00,
2013-01-03 02:46:00,30.6,30.1,30.33,North,0,1.6,-999.0,98,-99.99,,,0.00,Acu-Link.com,2013-01-03 08:46:00,
2013-01-03 03:01:00,30.7,27.6,30.34,West,270,1.6,-999.0,88,-99.99,,,0.00,Acu-Link.com,2013-01-03 09:01:00,
2013-01-03 03:17:00,30.9,27.5,30.34,SE,135,2.2,-999.0,87,-99.99,,,0.00,Acu-Link.com,2013-01-03 09:17:00,
2013-01-03 03:32:00,31.3,28.4,30.34,NW,315,3.1,-999.0,89,-99.99,,,0.00,Acu-Link.com,2013-01-03 09:32:00,
2013-01-03 03:47:00,31.5,28.9,30.34,West,270,2.2,-999.0,90,-99.99,,,0.00,Acu-Link.com,2013-01-03 09:47:00,
2013-01-03 04:02:00,31.3,29.0,30.34,West,270,1.1,-999.0,91,-99.99,,,0.00,Acu-Link.com,2013-01-03 10:02:00,
2013-01-03 04:17:00,30.9,28.3,30.35,SSW,202,1.1,-999.0,90,-99.99,,,0.00,Acu-Link.com,2013-01-03 10:17:00,
2013-01-03 04:33:00,30.7,27.9,30.36,WNW,292,1.6,-999.0,89,-99.99,,,0.00,Acu-Link.com,2013-01-03 10:33:00,
2013-01-03 04:48:00,30.7,27.6,30.35,West,270,2.2,-999.0,88,-99.99,,,0.00,Acu-Link.com,2013-01-03 10:48:00,
2013-01-03 05:03:00,31.1,28.2,30.36,WNW,292,2.2,-999.0,89,-99.99,,,0.00,Acu-Link.com,2013-01-03 11:03:00,
2013-01-03 05:18:00,30.9,27.8,30.36,West,270,2.2,-999.0,88,-99.99,,,0.00,Acu-Link.com,2013-01-03 11:18:00,
2013-01-03 05:33:00,30.9,28.1,30.36,West,270,1.6,-999.0,89,-99.99,,,0.00,Acu-Link.com,2013-01-03 11:33:00,
2013-01-03 05:49:00,30.9,28.1,30.36,WSW,247,0.0,-999.0,89,-99.99,,,0.00,Acu-Link.com,2013-01-03 11:49:00,
2013-01-03 06:04:00,30.6,27.7,30.37,NW,315,0.0,-999.0,89,-99.99,,,0.00,Acu-Link.com,2013-01-03 12:04:00,
2013-01-03 06:19:00,30.6,27.7,30.38,West,270,1.6,-999.0,89,-99.99,,,0.00,Acu-Link.com,2013-01-03 12:19:00,
2013-01-03 06:34:00,30.2,27.1,30.39,NNW,337,1.6,-999.0,88,-99.99,,,0.00,Acu-Link.com,2013-01-03 12:34:00,
2013-01-03 06:49:00,29.8,26.7,30.39,SSW,202,0.0,-999.0,88,-99.99,,,0.00,Acu-Link.com,2013-01-03 12:49:00,
2013-01-03 07:05:00,29.8,26.5,30.40,WSW,247,0.0,-999.0,87,-99.99,,,0.00,Acu-Link.com,2013-01-03 13:05:00,
2013-01-03 07:20:00,30.0,26.6,30.41,SW,225,2.2,-999.0,87,-99.99,,,0.00,Acu-Link.com,2013-01-03 13:20:00,
2013-01-03 07:35:00,30.6,27.2,30.41,WSW,247,2.2,-999.0,87,-99.99,,,0.00,Acu-Link.com,2013-01-03 13:35:00,
2013-01-03 07:51:00,30.7,27.3,30.42,WNW,292,1.6,-999.0,87,-99.99,,,0.00,Acu-Link.com,2013-01-03 13:51:00,
2013-01-03 08:06:00,31.1,27.7,30.43,West,270,1.6,-999.0,87,-99.99,,,0.00,Acu-Link.com,2013-01-03 14:06:00,
2013-01-03 08:21:00,32.2,28.8,30.43,West,270,2.2,-999.0,87,-99.99,,,0.00,Acu-Link.com,2013-01-03 14:21:00,
2013-01-03 08:37:00,33.6,30.2,30.43,WSW,247,2.7,-999.0,87,-99.99,,,0.00,Acu-Link.com,2013-01-03 14:37:00,
2013-01-03 08:52:00,35.8,32.0,30.43,South,180,1.6,-999.0,86,-99.99,,,0.00,Acu-Link.com,2013-01-03 14:52:00,
2013-01-03 09:07:00,37.6,33.2,30.44,West,270,2.2,-999.0,84,-99.99,,,0.00,Acu-Link.com,2013-01-03 15:07:00,
2013-01-03 09:22:00,39.0,34.9,30.44,NW,315,2.2,-999.0,85,-99.99,,,0.00,Acu-Link.com,2013-01-03 15:22:00,
2013-01-03 09:37:00,41.0,35.9,30.45,SSW,202,3.8,-999.0,82,-99.99,,,0.00,Acu-Link.com,2013-01-03 15:37:00,
2013-01-03 09:53:00,41.5,37.1,30.45,WSW,247,2.7,-999.0,84,-99.99,,,0.00,Acu-Link.com,2013-01-03 15:53:00,
2013-01-03 10:08:00,42.6,37.8,30.45,South,180,3.1,-999.0,83,-99.99,,,0.00,Acu-Link.com,2013-01-03 16:08:00,
2013-01-03 10:23:00,42.6,35.9,30.45,SW,225,2.2,-999.0,77,-99.99,,,0.00,Acu-Link.com,2013-01-03 16:23:00,
2013-01-03 10:38:00,45.3,37.9,30.44,East,90,1.1,-999.0,75,-99.99,,,0.00,Acu-Link.com,2013-01-03 16:38:00,
2013-01-03 10:53:00,44.8,36.3,30.44,SSW,202,2.2,-999.0,72,-99.99,,,0.00,Acu-Link.com,2013-01-03 16:53:00,
2013-01-03 11:09:00,46.4,36.4,30.44,SW,225,2.7,-999.0,68,-99.99,,,0.00,Acu-Link.com,2013-01-03 17:09:00,
2013-01-03 11:24:00,47.1,36.4,30.44,SW,225,1.6,-999.0,66,-99.99,,,0.00,Acu-Link.com,2013-01-03 17:24:00,
2013-01-03 11:39:00,47.8,37.0,30.44,SSW,202,2.2,-999.0,66,-99.99,,,0.00,Acu-Link.com,2013-01-03 17:39:00,
2013-01-03 11:54:00,47.5,35.5,30.42,SSW,202,2.2,-999.0,63,-99.99,,,0.00,Acu-Link.com,2013-01-03 17:54:00,
2013-01-03 12:09:00,49.3,36.0,30.42,South,180,2.2,-999.0,60,-99.99,,,0.00,Acu-Link.com,2013-01-03 18:09:00,
2013-01-03 12:25:00,49.3,35.6,30.41,West,270,3.1,-999.0,59,-99.99,,,0.00,Acu-Link.com,2013-01-03 18:25:00,
2013-01-03 12:40:00,50.4,36.6,30.39,WNW,292,2.2,-999.0,59,-99.99,,,0.00,Acu-Link.com,2013-01-03 18:40:00,
2013-01-03 12:55:00,50.9,36.2,30.38,West,270,2.7,-999.0,57,-99.99,,,0.00,Acu-Link.com,2013-01-03 18:55:00,
2013-01-03 13:10:00,49.3,35.6,30.38,West,270,4.3,-999.0,59,-99.99,,,0.00,Acu-Link.com,2013-01-03 19:10:00,
2013-01-03 13:56:00,51.4,36.7,30.38,South,180,2.2,-999.0,57,-99.99,,,0.00,Acu-Link.com,2013-01-03 19:56:00,
2013-01-03 14:11:00,50.4,34.8,30.39,SW,225,2.7,-999.0,55,-99.99,,,0.00,Acu-Link.com,2013-01-03 20:11:00,
2013-01-03 14:26:00,50.9,34.9,30.39,NW,315,0.0,-999.0,54,-99.99,,,0.00,Acu-Link.com,2013-01-03 20:26:00,
2013-01-03 14:42:00,49.8,34.8,30.39,West,270,1.6,-999.0,56,-99.99,,,0.00,Acu-Link.com,2013-01-03 20:42:00,
2013-01-03 14:57:00,49.8,34.3,30.39,SW,225,2.7,-999.0,55,-99.99,,,0.00,Acu-Link.com,2013-01-03 20:57:00,
2013-01-03 15:12:00,50.4,34.8,30.39,SSW,202,1.6,-999.0,55,-99.99,,,0.00,Acu-Link.com,2013-01-03 21:12:00,
2013-01-03 15:27:00,52.0,36.3,30.38,SW,225,1.1,-999.0,55,-99.99,,,0.00,Acu-Link.com,2013-01-03 21:27:00,
2013-01-03 15:42:00,50.7,36.0,30.39,WSW,247,0.0,-999.0,57,-99.99,,,0.00,Acu-Link.com,2013-01-03 21:42:00,
2013-01-03 15:58:00,50.7,35.6,30.39,WSW,247,1.6,-999.0,56,-99.99,,,0.00,Acu-Link.com,2013-01-03 21:58:00,
2013-01-03 16:13:00,49.8,35.2,30.39,SW,225,2.2,-999.0,57,-99.99,,,0.00,Acu-Link.com,2013-01-03 22:13:00,
2013-01-03 16:28:00,48.7,34.2,30.39,SW,225,0.0,-999.0,57,-99.99,,,0.00,Acu-Link.com,2013-01-03 22:28:00,
2013-01-03 16:43:00,48.7,33.8,30.40,WNW,292,0.0,-999.0,56,-99.99,,,0.00,Acu-Link.com,2013-01-03 22:43:00,
2013-01-03 16:58:00,48.9,34.8,30.40,SSW,202,0.0,-999.0,58,-99.99,,,0.00,Acu-Link.com,2013-01-03 22:58:00,
2013-01-03 17:14:00,47.8,33.8,30.40,SW,225,0.0,-999.0,58,-99.99,,,0.00,Acu-Link.com,2013-01-03 23:14:00,
2013-01-03 17:29:00,46.8,33.2,30.40,South,180,0.0,-999.0,59,-99.99,,,0.00,Acu-Link.com,2013-01-03 23:29:00,
2013-01-03 17:44:00,45.7,32.6,30.40,SSW,202,0.0,-999.0,60,-99.99,,,0.00,Acu-Link.com,2013-01-03 23:44:00,
2013-01-03 17:59:00,44.8,32.6,30.40,WSW,247,0.0,-999.0,62,-99.99,,,0.00,Acu-Link.com,2013-01-03 23:59:00,
2013-01-03 18:15:00,43.7,31.9,30.41,SW,225,0.0,-999.0,63,-99.99,,,0.00,Acu-Link.com,2013-01-04 00:15:00,
2013-01-03 18:30:00,43.2,32.6,30.42,WSW,247,0.0,-999.0,66,-99.99,,,0.00,Acu-Link.com,2013-01-04 00:30:00,
2013-01-03 18:45:00,43.0,33.2,30.42,SW,225,0.0,-999.0,68,-99.99,,,0.00,Acu-Link.com,2013-01-04 00:45:00,
2013-01-03 19:00:00,43.2,33.0,30.42,SW,225,0.0,-999.0,67,-99.99,,,0.00,Acu-Link.com,2013-01-04 01:00:00,
2013-01-03 19:15:00,43.2,33.0,30.42,WNW,292,0.0,-999.0,67,-99.99,,,0.00,Acu-Link.com,2013-01-04 01:15:00,
2013-01-03 19:31:00,43.5,32.9,30.41,West,270,0.0,-999.0,66,-99.99,,,0.00,Acu-Link.com,2013-01-04 01:31:00,
2013-01-03 19:46:00,43.3,33.1,30.42,SW,225,0.0,-999.0,67,-99.99,,,0.00,Acu-Link.com,2013-01-04 01:46:00,
2013-01-03 20:01:00,43.2,33.7,30.42,SW,225,0.0,-999.0,69,-99.99,,,0.00,Acu-Link.com,2013-01-04 02:01:00,
2013-01-03 20:16:00,42.6,33.5,30.43,South,180,0.0,-999.0,70,-99.99,,,0.00,Acu-Link.com,2013-01-04 02:16:00,
2013-01-03 20:31:00,43.2,34.1,30.41,East,90,0.0,-999.0,70,-99.99,,,0.00,Acu-Link.com,2013-01-04 02:31:00,
2013-01-03 20:47:00,43.3,34.6,30.41,West,270,0.0,-999.0,71,-99.99,,,0.00,Acu-Link.com,2013-01-04 02:47:00,
2013-01-03 21:02:00,43.3,34.6,30.42,SSW,202,0.0,-999.0,71,-99.99,,,0.00,Acu-Link.com,2013-01-04 03:02:00,
2013-01-03 21:17:00,43.3,34.6,30.41,West,270,0.0,-999.0,71,-99.99,,,0.00,Acu-Link.com,2013-01-04 03:17:00,
2013-01-03 21:32:00,43.7,34.2,30.43,WNW,292,0.0,-999.0,69,-99.99,,,0.00,Acu-Link.com,2013-01-04 03:32:00,
2013-01-03 21:47:00,43.7,35.3,30.43,East,90,0.0,-999.0,72,-99.99,,,0.00,Acu-Link.com,2013-01-04 03:47:00,
2013-01-03 22:03:00,43.5,36.1,30.43,ESE,112,0.0,-999.0,75,-99.99,,,0.00,Acu-Link.com,2013-01-04 04:03:00,
2013-01-03 22:18:00,43.5,35.4,30.43,WSW,247,0.0,-999.0,73,-99.99,,,0.00,Acu-Link.com,2013-01-04 04:18:00,
2013-01-03 22:33:00,43.5,35.4,30.43,WNW,292,0.0,-999.0,73,-99.99,,,0.00,Acu-Link.com,2013-01-04 04:33:00,
2013-01-03 22:48:00,43.3,35.6,30.43,SW,225,0.0,-999.0,74,-99.99,,,0.00,Acu-Link.com,2013-01-04 04:48:00,
2013-01-03 23:04:00,43.3,36.0,30.43,SSW,202,0.0,-999.0,75,-99.99,,,0.00,Acu-Link.com,2013-01-04 05:04:00,
2013-01-03 23:19:00,43.2,36.8,30.43,SW,225,0.0,-999.0,78,-99.99,,,0.00,Acu-Link.com,2013-01-04 05:19:00,
2013-01-03 23:34:00,43.0,36.6,30.43,SW,225,0.0,-999.0,78,-99.99,,,0.00,Acu-Link.com,2013-01-04 05:34:00,
2013-01-03 23:49:00,43.0,35.6,30.42,SSW,202,0.0,-999.0,75,-99.99,,,0.00,Acu-Link.com,2013-01-04 05:49:00,